Location: Oshawa
(43.9000°N, 78.8670°W)
Time: 11:54:38
(UTC-04:00)

Cosmos 1500 - Visible Passes

Search period start: 29 April 2016 00:00
Search period end: 09 May 2016 00:00
Orbit: 504 x 528 km, 82.5° (Epoch: 28 April)

Date Brightness Start Highest point End Pass type
(mag) Time Alt. Az. Time Alt. Az. Time Alt. Az.
29 Apr 5.5 00:22:39 10° N 00:24:10 23° N 00:24:10 23° N visible
30 Apr 5.3 00:07:50 10° N 00:09:34 26° N 00:09:34 26° N visible
30 Apr 5.1 23:53:02 10° N 23:54:58 28° N 23:54:58 28° N visible
01 May 4.9 23:38:16 10° N 23:40:23 29° NNE 23:40:23 29° NNE visible
02 May 4.7 23:23:31 10° N 23:25:48 29° NNE 23:25:48 29° NNE visible
03 May 6.1 01:00:29 10° NW 01:00:50 11° WNW 01:00:50 11° WNW visible
03 May 4.7 23:08:47 10° N 23:11:14 28° NE 23:11:14 28° NE visible
04 May 5.9 00:45:15 10° NW 00:46:16 14° WNW 00:46:16 14° WNW visible
04 May 4.7 22:54:04 10° NNE 22:56:40 26° NE 22:56:40 26° NE visible
05 May 5.7 00:30:08 10° NW 00:31:42 17° WNW 00:31:42 17° WNW visible
05 May 4.8 22:39:23 10° NNE 22:42:07 23° ENE 22:42:07 23° ENE visible
06 May 5.4 00:15:04 10° NW 00:17:09 21° WNW 00:17:09 21° WNW visible
06 May 4.9 22:24:45 10° NNE 22:27:34 20° ENE 22:27:34 20° ENE visible
07 May 5.0 00:00:04 10° NNW 00:02:36 26° WNW 00:02:36 26° WNW visible
07 May 5.0 22:10:10 10° NNE 22:12:43 17° ENE 22:13:02 17° ENE visible
07 May 4.6 23:45:05 10° NNW 23:48:04 33° WNW 23:48:04 33° WNW visible
08 May 5.2 21:55:40 10° NE 21:57:48 14° ENE 21:58:31 14° E visible
08 May 4.2 23:30:08 10° NNW 23:33:33 41° W 23:33:33 41° W visible
